Total_Precipitation_Accumulation
0.55 0.53 0.58 0.71 0.77 0.80 0.78 0.68 0.61 0.58 0.59 0.65 0.75 0.76 0.72 0.69 0.64 0.60 0.56 0.54 0.52 0.49 0.51 0.55 0.55 0.57 0.62 0.58 0.54 0.49 0.47 0.52 0.50 0.15 0.06 0.08 0.16 0.21 0.22 0.22 0.24 0.22 0.19
0.51 0.58 0.58 0.66 0.78 0.80 0.72 0.67 0.66 0.60 0.57 0.58 0.66 0.77 0.79 0.75 0.69 0.65 0.64 0.68 0.73 0.69 0.62 0.61 0.61 0.62 0.67 0.68 0.67 0.61 0.50 0.43 0.47 0.32 0.12 0.09 0.14 0.23 0.29 0.28 0.26 0.23 0.20
0.43 0.55 0.64 0.69 0.76 0.81 0.75 0.65 0.66 0.67 0.61 0.57 0.62 0.74 0.84 0.85 0.80 0.72 0.70 0.73 0.83 0.91 0.89 0.87 0.78 0.72 0.73 0.71 0.73 0.69 0.59 0.48 0.45 0.42 0.26 0.15 0.16 0.24 0.36 0.38 0.33 0.29 0.25
0.31 0.46 0.56 0.65 0.70 0.77 0.79 0.74 0.71 0.67 0.63 0.59 0.58 0.64 0.76 0.89 0.97 0.96 0.95 0.88 0.88 0.92 0.97 0.99 0.97 0.97 0.91 0.84 0.82 0.77 0.72 0.68 0.60 0.57 0.45 0.29 0.24 0.28 0.44 0.51 0.45 0.36 0.32
0.22 0.33 0.46 0.54 0.62 0.72 0.78 0.78 0.79 0.77 0.67 0.60 0.55 0.55 0.62 0.90 1.28 1.27 1.15 1.06 0.92 0.81 0.76 0.79 0.87 1.02 1.07 1.11 1.14 1.05 1.01 1.04 0.96 0.86 0.72 0.55 0.43 0.44 0.54 0.59 0.66 0.56 0.46
0.16 0.20 0.33 0.46 0.56 0.65 0.72 0.80 0.79 0.78 0.77 0.68 0.56 0.52 0.56 0.79 1.22 1.27 1.01 0.80 0.67 0.64 0.62 0.57 0.60 0.78 0.88 0.99 1.12 1.14 1.19 1.33 1.37 1.25 1.02 0.82 0.58 0.51 0.57 0.72 0.85 0.89 0.74
0.13 0.16 0.24 0.33 0.46 0.56 0.64 0.72 0.80 0.77 0.74 0.73 0.62 0.50 0.45 0.57 0.96 1.05 0.85 0.59 0.47 0.45 0.46 0.45 0.45 0.53 0.65 0.67 0.78 0.87 0.96 1.12 1.33 1.40 1.33 0.98 0.71 0.56 0.69 0.85 0.89 0.97 0.85
0.12 0.13 0.16 0.23 0.34 0.46 0.59 0.65 0.71 0.77 0.74 0.68 0.61 0.54 0.47 0.45 0.79 0.96 0.79 0.52 0.41 0.37 0.38 0.36 0.34 0.38 0.51 0.64 0.73 0.73 0.72 0.83 1.10 1.32 1.44 1.24 0.98 0.84 0.96 1.18 1.28 1.26 1.07
0.11 0.12 0.12 0.15 0.23 0.36 0.47 0.57 0.62 0.69 0.70 0.66 0.57 0.49 0.46 0.41 0.62 0.94 0.89 0.55 0.43 0.36 0.35 0.35 0.31 0.29 0.47 0.66 0.66 0.61 0.54 0.59 0.74 1.02 1.22 1.26 1.23 1.26 1.35 1.59 1.74 1.68 1.51
0.10 0.10 0.10 0.11 0.15 0.26 0.36 0.45 0.56 0.62 0.64 0.62 0.57 0.47 0.42 0.37 0.48 0.85 1.05 0.66 0.47 0.38 0.34 0.33 0.40 0.43 0.55 0.62 0.57 0.58 0.62 0.55 0.52 0.58 0.67 0.76 0.84 0.91 1.13 1.42 1.60 1.68 1.66
0.10 0.11 0.09 0.09 0.12 0.18 0.30 0.39 0.52 0.60 0.63 0.59 0.52 0.47 0.39 0.35 0.38 0.64 1.04 0.87 0.59 0.48 0.43 0.38 0.36 0.46 0.50 0.54 0.57 0.56 0.65 0.61 0.57 0.65 0.65 0.62 0.65 0.75 0.89 1.13 1.40 1.59 1.72
0.11 0.11 0.10 0.10 0.11 0.16 0.27 0.37 0.46 0.55 0.62 0.58 0.50 0.49 0.44 0.38 0.39 0.55 0.78 0.88 0.73 0.54 0.46 0.38 0.37 0.46 0.49 0.55 0.54 0.57 0.62 0.62 0.60 0.61 0.55 0.53 0.58 0.68 0.79 0.96 1.17 1.34 1.43
0.11 0.11 0.11 0.12 0.13 0.16 0.23 0.33 0.45 0.50 0.57 0.57 0.48 0.46 0.46 0.42 0.44 0.59 0.60 0.66 0.71 0.63 0.62 0.60 0.52 0.53 0.51 0.45 0.46 0.50 0.51 0.50 0.56 0.58 0.50 0.44 0.48 0.61 0.68 0.79 0.92 1.10 1.21
0.12 0.12 0.13 0.15 0.16 0.17 0.21 0.28 0.39 0.45 0.53 0.57 0.50 0.43 0.43 0.46 0.57 0.71 0.62 0.56 0.65 0.70 0.71 0.70 0.65 0.61 0.51 0.42 0.39 0.36 0.36 0.42 0.47 0.49 0.43 0.37 0.39 0.49 0.60 0.73 0.88 1.01 1.18
0.13 0.13 0.14 0.17 0.19 0.21 0.24 0.27 0.31 0.36 0.48 0.59 0.50 0.48 0.56 0.68 0.75 0.84 0.76 0.73 0.79 0.83 0.80 0.74 0.63 0.58 0.56 0.45 0.35 0.30 0.29 0.35 0.38 0.37 0.38 0.38 0.39 0.46 0.54 0.65 0.85 1.00 1.14
0.15 0.16 0.18 0.20 0.21 0.23 0.27 0.31 0.36 0.37 0.40 0.41 0.42 0.47 0.50 0.72 0.74 0.67 0.66 0.68 0.78 0.88 0.83 0.74 0.56 0.47 0.45 0.41 0.37 0.33 0.29 0.28 0.28 0.30 0.36 0.38 0.41 0.47 0.53 0.59 0.76 0.95 1.05
0.18 0.19 0.21 0.22 0.23 0.25 0.28 0.32 0.37 0.40 0.42 0.41 0.40 0.42 0.48 0.62 0.66 0.62 0.62 0.60 0.62 0.63 0.63 0.52 0.41 0.35 0.34 0.33 0.33 0.30 0.27 0.24 0.26 0.30 0.32 0.34 0.38 0.43 0.49 0.55 0.65 0.80 0.93
0.20 0.23 0.25 0.24 0.25 0.28 0.31 0.34 0.37 0.40 0.42 0.42 0.45 0.47 0.48 0.53 0.57 0.60 0.64 0.68 0.66 0.55 0.45 0.40 0.38 0.34 0.32 0.32 0.31 0.31 0.28 0.27 0.28 0.28 0.28 0.29 0.34 0.41 0.46 0.49 0.56 0.71 0.84
0.23 0.26 0.28 0.29 0.30 0.32 0.34 0.37 0.38 0.38 0.37 0.36 0.41 0.54 0.59 0.58 0.57 0.60 0.61 0.58 0.52 0.46 0.41 0.38 0.36 0.38 0.36 0.33 0.31 0.30 0.31 0.29 0.27 0.27 0.27 0.27 0.29 0.37 0.41 0.43 0.49 0.61 0.77
0.25 0.31 0.33 0.35 0.36 0.37 0.39 0.40 0.41 0.43 0.41 0.38 0.38 0.43 0.58 0.67 0.64 0.63 0.58 0.51 0.47 0.42 0.38 0.37 0.35 0.37 0.38 0.36 0.35 0.33 0.33 0.30 0.28 0.26 0.25 0.24 0.26 0.31 0.36 0.39 0.46 0.54 0.65
0.28 0.32 0.37 0.38 0.38 0.41 0.44 0.46 0.46 0.49 0.47 0.41 0.36 0.38 0.57 0.62 0.54 0.49 0.52 0.51 0.47 0.43 0.40 0.38 0.37 0.37 0.37 0.35 0.35 0.35 0.33 0.29 0.25 0.24 0.22 0.21 0.22 0.26 0.28 0.34 0.40 0.47 0.56
0.31 0.34 0.38 0.40 0.43 0.47 0.50 0.50 0.50 0.51 0.47 0.43 0.40 0.43 0.51 0.45 0.40 0.40 0.43 0.45 0.45 0.44 0.42 0.43 0.41 0.37 0.38 0.38 0.38 0.37 0.34 0.29 0.24 0.23 0.22 0.19 0.20 0.22 0.24 0.28 0.33 0.40 0.48
0.33 0.38 0.43 0.45 0.47 0.53 0.55 0.50 0.50 0.50 0.48 0.45 0.45 0.46 0.47 0.45 0.40 0.38 0.40 0.42 0.45 0.44 0.42 0.43 0.43 0.38 0.35 0.35 0.36 0.37 0.36 0.29 0.25 0.25 0.27 0.24 0.21 0.21 0.22 0.25 0.27 0.35 0.44
0.37 0.41 0.48 0.51 0.52 0.52 0.56 0.55 0.52 0.52 0.52 0.49 0.46 0.45 0.47 0.45 0.42 0.38 0.38 0.40 0.43 0.42 0.40 0.42 0.42 0.38 0.35 0.33 0.31 0.29 0.28 0.27 0.29 0.32 0.30 0.30 0.27 0.23 0.24 0.27 0.27 0.32 0.41
0.41 0.45 0.51 0.56 0.57 0.59 0.60 0.59 0.56 0.55 0.55 0.51 0.48 0.46 0.45 0.44 0.43 0.40 0.38 0.39 0.40 0.39 0.36 0.38 0.41 0.40 0.36 0.32 0.28 0.26 0.27 0.30 0.35 0.44 0.51 0.48 0.37 0.29 0.29 0.31 0.31 0.33 0.40
0.42 0.46 0.53 0.58 0.60 0.63 0.65 0.65 0.62 0.59 0.58 0.54 0.50 0.49 0.49 0.48 0.45 0.43 0.41 0.42 0.44 0.42 0.38 0.37 0.37 0.38 0.35 0.32 0.29 0.28 0.30 0.33 0.38 0.46 0.59 0.65 0.51 0.37 0.34 0.36 0.34 0.36 0.40